Greenville, ME

4:42 PM EST on December 16, 2017 (GMT -0500)
Greenville

Weather History for KGNR - November, 2011

Change the Weather History Date:

Thursday, November 24, 2011

  Actual Average (KMLT) Record (KMLT)
Temperature  
Mean Temperature 24 °F -  
Max Temperature 30 °F 36 °F 65 °F (1931)
Min Temperature 19 °F 22 °F -3 °F (1989)
Degree Days  
Heating Degree Days 40    
Moisture  
Dew Point 22 °F    
Average Humidity 88    
Maximum Humidity 96    
Minimum Humidity 72    
Precipitation  
Precipitation 0.00 in - - ()
Sea Level Pressure  
Sea Level Pressure 30.04 in    
Wind  
Wind Speed 3 mph (NNW)    
Max Wind Speed 10 mph    
Max Gust Speed -    
Averages and records for this station are not official NWS values.
T = Trace of Precipitation, MM = Missing Value Source: NWS Daily Summary

Daily Weather History Graph

Daily Weather History Graph

Search for Another Location

Airport or City:

Trip Planner

Search our weather history database for the weather conditions in past years. The results will help you decide how hot, cold, wet, or windy it might be!

Date:

Astronomy

Nov. 24, 2011 Rise Set
Actual Time 6:48 AM EST 4:00 PM EST
Civil Twilight 6:16 AM EST 4:33 PM EST
Nautical Twilight 5:39 AM EST 5:09 PM EST
Astronomical Twilight 5:04 AM EST 5:45 PM EST
Moon 6:03 AM EST (11/24) 3:26 PM EST (11/24)
Length of Visible Light 10h 17m
Length of Day
9h 11m
Waning Crescent, 0% of the Moon is Illuminated
Nov 24
Waning Crescent
Nov 25
New
Dec 2
First Quarter
Dec 10
Full
Dec 17
Last Quarter

Hourly Weather History & Observations

Time (EST) Temp. Windchill Dew Point Humidity Pressure Visibility Wind Dir Wind Speed Gust Speed Precip Events Conditions
12:56 AM 19.9 °F - 18.0 °F 92% 29.99 in - Calm Calm - N/A   Unknown
1:56 AM 19.0 °F 12.3 °F 18.0 °F 96% 30.01 in - Variable 4.6 mph - N/A   Unknown
2:56 AM 19.0 °F 7.5 °F 17.1 °F 92% 29.99 in - North 10.4 mph - N/A   Unknown
3:56 AM 19.0 °F 13.9 °F 17.1 °F 92% 30.00 in - Variable 3.5 mph - N/A   Unknown
4:56 AM 19.0 °F 9.0 °F 18.0 °F 96% 30.02 in - NNW 8.1 mph - N/A   Unknown
5:56 AM 19.0 °F 10.0 °F 18.0 °F 96% 30.04 in - North 6.9 mph - N/A   Unknown
6:56 AM 19.9 °F 13.4 °F 19.0 °F 96% 30.05 in - NNW 4.6 mph - N/A   Unknown
7:56 AM 19.9 °F 12.1 °F 19.0 °F 96% 30.07 in - NNW 5.8 mph - N/A   Unknown
8:56 AM 21.0 °F - 19.9 °F 96% 30.06 in - Calm Calm - N/A   Unknown
9:56 AM 24.1 °F 18.2 °F 19.9 °F 84% 30.06 in - NNW 4.6 mph - N/A   Unknown
10:56 AM 28.0 °F 22.8 °F 19.9 °F 72% 30.04 in - NNW 4.6 mph - N/A   Unknown
11:56 AM 28.0 °F 18.6 °F 21.0 °F 75% 30.03 in - NNW 10.4 mph - N/A   Unknown
12:56 PM 28.9 °F 22.8 °F 23.0 °F 78% 30.02 in - NW 5.8 mph - N/A   Unknown
1:56 PM 30.0 °F 26.5 °F 24.1 °F 79% 30.02 in - Variable 3.5 mph - N/A   Unknown
2:56 PM 28.9 °F - 26.1 °F 89% 30.04 in - Calm Calm - N/A   Unknown
3:56 PM 28.0 °F - 24.1 °F 85% 30.04 in - Calm Calm - N/A   Unknown
4:56 PM 28.0 °F - 25.0 °F 88% 30.04 in - Calm Calm - N/A   Unknown
5:56 PM 28.9 °F - 25.0 °F 85% 30.05 in - Calm Calm - N/A   Unknown
6:56 PM 30.0 °F 26.5 °F 26.1 °F 85% 30.05 in - Variable 3.5 mph - N/A   Unknown
7:56 PM 30.0 °F - 26.1 °F 85% 30.06 in - Calm Calm - N/A   Unknown
8:56 PM 30.9 °F - 27.0 °F 85% 30.05 in - Calm Calm - N/A   Unknown
9:56 PM 30.0 °F - 27.0 °F 88% 30.05 in - Calm Calm - N/A   Unknown
10:56 PM 30.0 °F - 27.0 °F 88% 30.04 in - Calm Calm - N/A   Unknown
11:56 PM 30.0 °F - 27.0 °F 88% 30.02 in - Calm Calm - N/A   Unknown